• In Hungary
  • List of Countries
  • For 7 days
  • Water Temperature
  • Satellite Maps
  • Weather Map
  • News
  • Weather Widgets
  • user-avatar
    Login

    Hourly Weather Karpovo

    Today, 16 July, Monday

    Time Temperature Precipitation Wind Pressure Humidity
    00:00 +20°C° 1.8 mm 3 mps 738 mmHg 91%
    01:00 +20°C° 0.8 mm 3 mps 738 mmHg 92%
    02:00 +19°C° 0.8 mm 3 mps 738 mmHg 93%
    03:00 +19°C° 0 mm 2 mps 738 mmHg 94%
    04:00 +19°C° 0.3 mm 3 mps 738 mmHg 94%
    05:00 +19°C° 0.3 mm 3 mps 738 mmHg 94%
    06:00 +19°C° 0.3 mm 3 mps 738 mmHg 94%
    07:00 +21°C° 0.3 mm 4 mps 738 mmHg 91%
    08:00 +22°C° 0.3 mm 4 mps 738 mmHg 88%
    09:00 +25°C° 0 mm 4 mps 738 mmHg 82%
    10:00 +26°C° 0.9 mm 4 mps 738 mmHg 78%
    11:00 +27°C° 0.9 mm 5 mps 738 mmHg 73%
    12:00 +28°C° 0.9 mm 5 mps 738 mmHg 68%
    13:00 +29°C° 0.2 mm 5 mps 737 mmHg 67%
    14:00 +29°C° 0.2 mm 5 mps 737 mmHg 66%
    15:00 +28°C° 0 mm 5 mps 738 mmHg 66%
    16:00 +28°C° 0.7 mm 4 mps 738 mmHg 71%
    17:00 +27°C° 0.7 mm 3 mps 737 mmHg 75%
    18:00 +27°C° 0.7 mm 3 mps 737 mmHg 79%
    19:00 +26°C° 0.2 mm 3 mps 737 mmHg 81%
    20:00 +25°C° 0.2 mm 3 mps 737 mmHg 83%
    21:00 +22°C° 0.2 mm 3 mps 737 mmHg 85%
    22:00 +22°C° 0.8 mm 3 mps 737 mmHg 87%
    23:00 +21°C° 0.8 mm 3 mps 737 mmHg 89%

    Tomorrow, 17 July, Tuesday

    Time Temperature Precipitation Wind Pressure Humidity
    00:00 +20°C° 0.8 mm 3 mps 737 mmHg 91%
    01:00 +20°C° 0 mm 3 mps 736 mmHg 93%
    02:00 +20°C° 0 mm 3 mps 736 mmHg 94%
    03:00 +19°C° 0 mm 3 mps 736 mmHg 96%
    04:00 +20°C° 0 mm 4 mps 736 mmHg 96%
    05:00 +20°C° 0 mm 4 mps 736 mmHg 95%
    06:00 +20°C° 0 mm 5 mps 736 mmHg 95%
    07:00 +21°C° 0 mm 5 mps 736 mmHg 91%
    08:00 +23°C° 0 mm 6 mps 735 mmHg 87%
    09:00 +24°C° 0 mm 6 mps 735 mmHg 83%
    10:00 +26°C° 0.4 mm 6 mps 735 mmHg 80%
    11:00 +26°C° 0.4 mm 6 mps 735 mmHg 78%
    12:00 +27°C° 0.4 mm 6 mps 735 mmHg 75%
    13:00 +27°C° 0.8 mm 6 mps 734 mmHg 76%
    14:00 +27°C° 0.8 mm 6 mps 734 mmHg 77%
    15:00 +27°C° 0.8 mm 6 mps 734 mmHg 78%
    16:00 +26°C° 0.7 mm 5 mps 734 mmHg 80%
    17:00 +26°C° 0.7 mm 5 mps 734 mmHg 82%
    18:00 +25°C° 0.7 mm 4 mps 734 mmHg 85%
    19:00 +23°C° 0.1 mm 4 mps 734 mmHg 88%
    20:00 +22°C° 0.1 mm 4 mps 734 mmHg 91%
    21:00 +21°C° 0.1 mm 3 mps 734 mmHg 94%
    22:00 +21°C° 0 mm 4 mps 734 mmHg 94%
    23:00 +21°C° 0 mm 4 mps 733 mmHg 95%

    Day after tomorrow, 18 July, Wednesday

    Time Temperature Precipitation Wind Pressure Humidity
    00:00 +20°C° 0 mm 4 mps 733 mmHg 96%
    01:00 +20°C° 0 mm 4 mps 733 mmHg 96%
    02:00 +20°C° 0 mm 4 mps 733 mmHg 96%
    03:00 +19°C° 0 mm 5 mps 733 mmHg 96%
    04:00 +19°C° 0.1 mm 5 mps 732 mmHg 96%
    05:00 +19°C° 0.1 mm 6 mps 732 mmHg 95%
    06:00 +19°C° 0.1 mm 6 mps 732 mmHg 94%
    07:00 +19°C° 0.5 mm 6 mps 732 mmHg 94%
    08:00 +20°C° 0.5 mm 6 mps 732 mmHg 94%
    09:00 +20°C° 0.5 mm 6 mps 732 mmHg 94%
    10:00 +20°C° 0.3 mm 6 mps 731 mmHg 92%
    11:00 +21°C° 0.3 mm 6 mps 731 mmHg 91%
    12:00 +21°C° 0.3 mm 7 mps 731 mmHg 89%
    13:00 +22°C° 0.5 mm 7 mps 731 mmHg 87%
    14:00 +22°C° 0.5 mm 7 mps 731 mmHg 84%
    15:00 +23°C° 0.5 mm 7 mps 731 mmHg 82%
    16:00 +23°C° 0.6 mm 6 mps 731 mmHg 83%
    17:00 +22°C° 0.6 mm 6 mps 731 mmHg 85%
    18:00 +22°C° 0.6 mm 6 mps 731 mmHg 86%
    19:00 +21°C° 0.1 mm 5 mps 731 mmHg 89%
    20:00 +20°C° 0.1 mm 5 mps 731 mmHg 91%
    21:00 +19°C° 0.1 mm 4 mps 731 mmHg 93%
    22:00 +19°C° 0 mm 4 mps 731 mmHg 94%
    23:00 +18°C° 0 mm 4 mps 731 mmHg 95%

    19 July, Thursday

    Time Temperature Precipitation Wind Pressure Humidity
    00:00 +18°C° 0 mm 4 mps 731 mmHg 96%
    01:00 +18°C° 0.1 mm 4 mps 731 mmHg 96%
    02:00 +18°C° 0.1 mm 4 mps 731 mmHg 96%
    03:00 +18°C° 0.1 mm 3 mps 731 mmHg 96%
    04:00 +18°C° 0.3 mm 3 mps 731 mmHg 97%
    05:00 +18°C° 0.3 mm 3 mps 731 mmHg 97%
    06:00 +18°C° 0.3 mm 2 mps 731 mmHg 97%
    07:00 +18°C° 0.3 mm 2 mps 732 mmHg 96%
    08:00 +19°C° 0.3 mm 2 mps 732 mmHg 95%
    09:00 +19°C° 0.3 mm 2 mps 732 mmHg 94%
    10:00 +20°C° 0.2 mm 2 mps 732 mmHg 91%
    11:00 +21°C° 0.2 mm 2 mps 732 mmHg 88%
    12:00 +23°C° 0.2 mm 2 mps 733 mmHg 85%
    13:00 +24°C° 0.6 mm 2 mps 733 mmHg 81%
    14:00 +25°C° 0.6 mm 2 mps 733 mmHg 77%
    15:00 +26°C° 0.6 mm 2 mps 733 mmHg 73%
    16:00 +25°C° 0.3 mm 2 mps 733 mmHg 75%
    17:00 +25°C° 0.3 mm 3 mps 733 mmHg 76%
    18:00 +25°C° 0.3 mm 3 mps 733 mmHg 78%
    19:00 +24°C° 0.1 mm 3 mps 733 mmHg 83%
    20:00 +23°C° 0.1 mm 2 mps 733 mmHg 88%
    21:00 +21°C° 0.1 mm 2 mps 733 mmHg 93%
    22:00 +20°C° 0 mm 2 mps 734 mmHg 94%
    23:00 +20°C° 0 mm 2 mps 734 mmHg 95%

    20 July, Friday

    Time Temperature Precipitation Wind Pressure Humidity
    00:00 +19°C° 0 mm 2 mps 734 mmHg 96%
    01:00 +19°C° 0 mm 2 mps 734 mmHg 96%
    02:00 +19°C° 0 mm 2 mps 734 mmHg 97%
    03:00 +19°C° 0 mm 2 mps 734 mmHg 97%
    04:00 +19°C° 0.1 mm 3 mps 734 mmHg 97%
    05:00 +19°C° 0.1 mm 3 mps 735 mmHg 97%
    06:00 +19°C° 0.1 mm 3 mps 735 mmHg 97%
    07:00 +20°C° 0 mm 3 mps 735 mmHg 94%
    08:00 +21°C° 0 mm 4 mps 735 mmHg 92%
    09:00 +22°C° 0 mm 4 mps 735 mmHg 89%
    10:00 +23°C° 0.2 mm 4 mps 735 mmHg 85%
    11:00 +25°C° 0.2 mm 4 mps 735 mmHg 82%
    12:00 +26°C° 0.2 mm 4 mps 735 mmHg 78%
    13:00 +27°C° 1 mm 4 mps 735 mmHg 77%
    14:00 +27°C° 1 mm 3 mps 735 mmHg 76%
    15:00 +27°C° 1 mm 3 mps 735 mmHg 74%
    16:00 +27°C° 0.8 mm 3 mps 735 mmHg 76%
    17:00 +27°C° 0.8 mm 3 mps 735 mmHg 78%
    18:00 +27°C° 0.8 mm 3 mps 735 mmHg 79%
    19:00 +25°C° 0.1 mm 2 mps 735 mmHg 83%
    20:00 +24°C° 0.1 mm 2 mps 735 mmHg 88%
    21:00 +23°C° 0.1 mm 2 mps 735 mmHg 92%
    22:00 +21°C° 0.6 mm 2 mps 735 mmHg 93%
    23:00 +21°C° 0.6 mm 2 mps 735 mmHg 94%

    21 July, Saturday

    Time Temperature Precipitation Wind Pressure Humidity
    00:00 +20°C° 0.6 mm 2 mps 735 mmHg 95%
    01:00 +20°C° 0 mm 2 mps 735 mmHg 95%
    02:00 +20°C° 0 mm 2 mps 735 mmHg 95%
    03:00 +19°C° 0 mm 2 mps 735 mmHg 95%
    04:00 +19°C° 0 mm 2 mps 735 mmHg 95%
    05:00 +20°C° 0 mm 2 mps 735 mmHg 95%
    06:00 +20°C° 0 mm 2 mps 735 mmHg 95%
    07:00 +21°C° 0.1 mm 2 mps 735 mmHg 91%
    08:00 +22°C° 0.1 mm 3 mps 735 mmHg 87%
    09:00 +25°C° 0.1 mm 3 mps 736 mmHg 84%
    10:00 +26°C° 0.2 mm 3 mps 736 mmHg 79%
    11:00 +27°C° 0.2 mm 4 mps 736 mmHg 75%
    12:00 +28°C° 0.2 mm 4 mps 736 mmHg 71%
    13:00 +28°C° 0.9 mm 4 mps 736 mmHg 71%
    14:00 +28°C° 0.9 mm 4 mps 735 mmHg 70%
    15:00 +28°C° 0.9 mm 4 mps 735 mmHg 70%
    16:00 +28°C° 0.8 mm 3 mps 735 mmHg 73%
    17:00 +28°C° 0.8 mm 3 mps 735 mmHg 76%
    18:00 +27°C° 0.8 mm 2 mps 735 mmHg 79%
    19:00 +26°C° 0.6 mm 2 mps 735 mmHg 82%
    20:00 +25°C° 0.6 mm 2 mps 736 mmHg 86%
    21:00 +23°C° 0.6 mm 2 mps 736 mmHg 90%
    22:00 +23°C° 0 mm 2 mps 736 mmHg 91%
    23:00 +21°C° 0 mm 2 mps 736 mmHg 92%
    Show more